Location: Coffee Ditch
(40.9640°N, 122.7500°W)
Time: 08:02:05
(UTC+00:00)

Cosmos 2333 Rocket - Pass Details

Date: 08 September 2024
Orbit: 840 x 862 km, 70.8° (Epoch: 05 October)

Event Time Altitude Azimuth Distance (km) Brightness Sun altitude
Rises 12:41:49 0° 334° (NNW) 3,437 5.3 -12.5°
Reaches altitude 10° 12:44:17 10° 333° (NNW) 2,494 4.6 -12.0°
Maximum altitude 12:50:00 75° 249° (WSW) 884 2.2 -11.0°
Drops below altitude 10° 12:55:39 10° 165° (SSE) 2,462 4.6 -10.0°
Sets 12:58:05 0° 163° (SSE) 3,390 5.4 -9.6°
